[[{"header":{"parameterUnit":"m.s-1","parameterCategory":1,"la1":30.2991,"la2":30.254,"lo1":-89.0895,"lo2":-89.0444,"dy":0.0017,"dx":0.0017,"nx":28,"ny":28,"refTime":"2024-04-04T21:00:00:Z","depth":0,"parameterNumber":2,"parameterNumberName":"U-component_of_WINDS"},"data":[0,0,0,0,0,0,0,0,0,0,0,0,0,0,0,0,0,0,0,0,0,0,0,0,0,0,0,0,0,0,0,0,0,0,0,0,0,0,0,0,0,0,0,0,0,0,0,0,0,0,0,0,0,0,0,0,0,0,1.4195,1.4195,0,1.4242,1.4242,1.4243,1.4329,1.4331,1.4333,1.4334,1.4381,1.438,1.438,0,0,0,0,0,0,0,0,0,0,0,0,0,1.418,1.418,1.4195,1.4195,1.4196,1.4241,1.4242,1.4243,1.4329,1.4331,1.4333,1.4335,1.4381,1.438,1.438,0,0,0,0,0,0,0,0,0,0,0,0,0,1.4202,1.418,1.4195,1.4244,1.4249,1.4241,1.4242,1.4243,1.4329,1.4331,1.4334,1.4336,1.4381,1.4381,1.438,1.4327,0,0,1.4379,1.4378,0,0,0,0,0,0,0,0,1.4201,1.4203,1.4237,1.4241,1.4247,1.4282,1.4254,1.4271,1.4328,1.4298,1.4334,1.4337,1.4346,1.4348,1.4352,1.4329,1.4331,1.4379,1.4378,1.4378,1.4378,0,0,0,0,0,0,0,1.4199,1.4201,1.4213,1.4237,1.4243,1.4264,1.427,1.4258,1.4307,1.4301,1.4308,1.4312,1.4349,1.4352,1.4353,1.4332,1.4379,1.4378,1.4378,1.4378,1.4269,1.4267,0,0,0,0,0,0,1.419,1.4199,1.4212,1.4215,1.4229,1.4263,1.4269,1.4268,1.4308,1.4316,1.431,1.4316,1.4351,1.4354,1.4355,1.4296,1.4378,1.4378,1.4377,1.4272,1.4269,1.4266,0,0,0,0,0,0,1.419,1.4191,1.421,1.4209,1.4213,1.426,1.4258,1.4268,1.4271,1.4314,1.4324,1.4304,1.4354,1.4356,1.4334,1.4299,1.4377,1.4377,1.4275,1.4271,1.4267,1.4177,0,0,0,0,0,0,1.4189,1.419,1.417,1.4208,1.4213,1.4187,1.4256,1.4267,1.427,1.4278,1.4311,1.4319,1.4356,1.4334,1.4333,1.43,1.4377,1.4278,1.4273,1.4268,1.4183,1.417,1.4159,0,0,0,0,0,1.4188,1.4142,1.4169,1.417,1.4189,1.4185,1.4188,1.4231,1.4267,1.4247,1.4276,1.4318,1.4303,1.4331,1.4331,1.4297,1.428,1.4274,1.4269,1.4188,1.4173,1.4159,0,0,0,0,0,0,1.4098,1.4148,1.4178,1.4143,1.4159,1.4199,1.4176,1.4213,1.422,1.4227,1.4281,1.4288,1.4258,1.4276,1.4306,1.4248,1.4298,1.4292,1.4237,1.4223,1.4211,1.4207,1.4376,0,0,0,0,0,1.4075,1.4068,1.4111,1.4076,1.4083,1.4128,1.4128,1.416,1.4179,1.4186,1.4213,1.4229,1.4229,1.4227,1.4229,1.4186,1.4195,1.4163,1.4151,1.4141,1.4135,1.4114,1.4101,1.4247,1.4247,1.4247,0,0,1.4025,1.4052,1.4044,1.4059,1.4075,1.4067,1.4133,1.4121,1.4115,1.4184,1.4165,1.4185,1.4207,1.4175,1.4162,1.4188,1.4097,1.4134,1.4125,1.4125,1.4107,1.4093,1.4081,1.4243,1.4243,1.4244,0,0,1.3931,1.395,1.3923,1.3939,1.3963,1.3994,1.3987,1.4022,1.4039,1.402,1.4072,1.4066,1.4064,1.4078,1.4084,1.3997,1.4036,1.3996,1.3933,1.3913,1.3901,1.3891,1.386,1.3848,1.399,1.3989,1.3989,0,1.3866,1.3855,1.3904,1.3889,1.3895,1.3958,1.3931,1.3944,1.3967,1.3969,1.3999,1.3998,1.4017,1.3989,1.3968,1.3971,1.3966,1.3992,1.3899,1.3889,1.3881,1.3852,1.384,1.3984,1.3985,1.3985,1.3986,0,1.3775,1.3766,1.3742,1.3764,1.3766,1.3745,1.3791,1.3788,1.3821,1.3848,1.3829,1.3855,1.3863,1.3859,1.3891,1.3836,1.3852,1.3889,1.3941,1.3861,1.3834,1.3824,1.3977,1.3979,1.398,1.3982,0,0,1.3623,1.3674,1.3664,1.3675,1.3707,1.3702,1.3684,1.3693,1.3689,1.3704,1.369,1.3688,1.3723,1.373,1.3764,1.3746,1.3676,1.3787,1.3788,1.3765,1.3617,1.3588,1.3574,1.3702,1.37,1.3699,1.3615,0,1.3535,1.3508,1.3552,1.3515,1.3508,1.3569,1.3554,1.3572,1.3597,1.3596,1.3624,1.3621,1.3668,1.3673,1.3658,1.3687,1.3646,1.3694,1.369,1.3689,1.3681,1.356,1.3529,1.3448,1.3605,1.3603,1.3602,0,1.3428,1.3438,1.34,1.3436,1.3435,1.342,1.3432,1.343,1.3452,1.3472,1.3481,1.3522,1.3507,1.3558,1.3539,1.357,1.3572,1.3586,1.3584,1.3584,1.364,1.3556,1.3423,1.3411,1.3586,1.3587,1.3588,0,1.3321,1.3325,1.3303,1.3311,1.3352,1.334,1.3357,1.3382,1.3385,1.3396,1.3398,1.3407,1.3411,1.3417,1.3459,1.3493,1.3435,1.3489,1.3451,1.345,1.3435,1.3435,1.3299,1.3437,1.3437,1.3437,1.3438,0,1.3218,1.3192,1.3256,1.3242,1.3215,1.3267,1.3239,1.3262,1.3283,1.3275,1.3329,1.332,1.3377,1.3374,1.3407,1.3386,1.3388,1.3404,1.3413,1.3398,1.3396,1.3399,1.3405,1.3434,1.3435,1.3435,1.3436,0,1.3093,1.3135,1.3115,1.3156,1.3166,1.3144,1.3179,1.3168,1.3198,1.3187,1.3188,1.3234,1.3234,1.3277,1.3286,1.3308,1.3273,1.3292,1.3265,1.3271,1.323,1.3233,1.3091,1.3075,1.3222,1.3221,1.322,0,1.3024,1.3005,1.3045,1.3044,1.3058,1.3055,1.3058,1.3109,1.3111,1.3135,1.3121,1.3126,1.3132,1.3129,1.3164,1.3171,1.319,1.314,1.3192,1.3178,1.3189,1.3189,1.3188,1.3129,1.3127,1.3125,1.3124,0,1.2896,1.2918,1.2921,1.2932,1.2935,1.2945,1.2959,1.2955,1.3011,1.301,1.3011,1.3015,1.3025,1.3029,1.3043,1.306,1.3101,1.3108,1.3099,1.3084,1.3069,1.3076,1.3235,1.3111,1.3112,1.3113,1.3114,1.3114,1.2797,1.2784,1.281,1.2812,1.2828,1.284,1.2832,1.2861,1.2863,1.2875,1.2905,1.2901,1.2925,1.2948,1.2962,1.296,1.2985,1.2972,1.2969,1.2965,1.2957,1.307,1.2962,1.2963,1.2963,1.2964,1.2964,0,1.2672,1.2692,1.2693,1.2712,1.2713,1.2753,1.2771,1.277,1.2766,1.2785,1.279,1.2792,1.2796,1.2831,1.284,1.2831,1.285,1.2832,1.2832,1.2836,1.2934,1.294,1.2816,1.2816,1.2816,1.2816,1.2816,1.2816,1.2607,1.2586,1.2612,1.26,1.2621,1.2618,1.2625,1.2636,1.2652,1.2651,1.2655,1.2679,1.2705,1.2716,1.2722,1.2732,1.2732,1.2707,1.2724,1.2814,1.2829,1.2842,1.2848,1.2707,1.2707,1.2626,1.2625,1.2624]},{"header":{"parameterUnit":"m.s-1","parameterCategory":1,"la1":30.2991,"la2":30.254,"lo1":-89.0895,"lo2":-89.0444,"dy":0.0017,"dx":0.0017,"nx":28,"ny":28,"refTime":"2024-04-04T21:00:00:Z","depth":0,"parameterNumber":3,"parameterNumberName":"V-component_of_WINDS"},"data":[0,0,0,0,0,0,0,0,0,0,0,0,0,0,0,0,0,0,0,0,0,0,0,0,0,0,0,0,0,0,0,0,0,0,0,0,0,0,0,0,0,0,0,0,0,0,0,0,0,0,0,0,0,0,0,0,0,0,1.6297,1.6298,0,1.6391,1.6392,1.6393,1.6329,1.6327,1.6324,1.6321,1.6417,1.6422,1.6427,0,0,0,0,0,0,0,0,0,0,0,0,0,1.6059,1.6063,1.6297,1.6298,1.6299,1.6391,1.6392,1.6393,1.633,1.6326,1.6323,1.632,1.6415,1.6421,1.6428,0,0,0,0,0,0,0,0,0,0,0,0,0,1.6158,1.6065,1.6297,1.6279,1.6278,1.639,1.6392,1.6394,1.6331,1.6326,1.6322,1.6318,1.6413,1.6421,1.6428,1.6564,0,0,1.6452,1.6456,0,0,0,0,0,0,0,0,1.6153,1.6167,1.628,1.628,1.6279,1.6344,1.6343,1.6451,1.6332,1.6311,1.6321,1.6316,1.6396,1.6405,1.6432,1.6568,1.6572,1.6453,1.6458,1.6461,1.6464,0,0,0,0,0,0,0,1.6146,1.6163,1.6334,1.6282,1.6281,1.6265,1.6274,1.6363,1.6377,1.6312,1.6308,1.632,1.6395,1.6425,1.6434,1.6574,1.6453,1.646,1.6465,1.6468,1.6819,1.6823,0,0,0,0,0,0,1.6141,1.6157,1.6331,1.6337,1.6204,1.6272,1.6283,1.6328,1.6375,1.6378,1.6323,1.6316,1.6413,1.6425,1.6437,1.6594,1.6461,1.6469,1.6473,1.6814,1.682,1.6825,0,0,0,0,0,0,1.6136,1.6157,1.6327,1.6246,1.6266,1.6281,1.6332,1.6332,1.6361,1.6384,1.6386,1.6352,1.6411,1.6426,1.6531,1.6596,1.6472,1.6479,1.6809,1.6816,1.6822,1.6911,0,0,0,0,0,0,1.6129,1.6156,1.6208,1.6248,1.6271,1.6421,1.6336,1.6337,1.6375,1.6367,1.6411,1.6414,1.6408,1.652,1.6539,1.6605,1.6486,1.6803,1.6812,1.682,1.6903,1.692,1.6936,0,0,0,0,0,1.6121,1.6231,1.6211,1.6233,1.6337,1.6425,1.6438,1.643,1.6381,1.6433,1.6446,1.6412,1.6587,1.6531,1.6552,1.6622,1.6799,1.681,1.682,1.6895,1.6917,1.6935,0,0,0,0,0,0,1.62,1.6236,1.6215,1.6341,1.638,1.6414,1.648,1.6454,1.6509,1.6499,1.6486,1.6496,1.6605,1.6625,1.6562,1.6752,1.6685,1.67,1.6735,1.6756,1.6772,1.6763,1.6492,0,0,0,0,0,1.6232,1.6301,1.6329,1.6437,1.6458,1.6465,1.6504,1.6493,1.6534,1.655,1.6572,1.6612,1.6675,1.6717,1.6777,1.6906,1.6912,1.6963,1.698,1.6993,1.7005,1.7069,1.7091,1.6859,1.6859,1.6859,0,0,1.6299,1.6327,1.6371,1.6453,1.6483,1.6552,1.648,1.6559,1.6609,1.6562,1.6661,1.6679,1.6722,1.6838,1.6891,1.6858,1.7071,1.7007,1.7017,1.7022,1.7082,1.7104,1.7124,1.6866,1.6865,1.6864,0,0,1.6455,1.6485,1.6576,1.6606,1.6651,1.6655,1.6677,1.6714,1.6723,1.6823,1.6787,1.6847,1.6958,1.6989,1.7019,1.7182,1.7151,1.7203,1.7288,1.735,1.7368,1.7384,1.7438,1.7458,1.7215,1.7216,1.7216,0,1.6532,1.6636,1.6626,1.6705,1.674,1.67,1.6789,1.682,1.6882,1.6906,1.6869,1.7003,1.7031,1.715,1.7189,1.7217,1.7238,1.7196,1.7367,1.7383,1.7397,1.7448,1.7469,1.7221,1.722,1.722,1.7219,0,1.6726,1.6799,1.6866,1.6925,1.6969,1.7053,1.7053,1.7098,1.7084,1.7091,1.719,1.7221,1.7283,1.7312,1.73,1.7429,1.7406,1.7369,1.73,1.7425,1.7472,1.7492,1.7229,1.7227,1.7225,1.7224,0,0,1.6934,1.6984,1.7009,1.7032,1.7078,1.7133,1.7214,1.7275,1.7311,1.7355,1.742,1.7513,1.7477,1.7511,1.7501,1.7557,1.7678,1.7511,1.7512,1.7537,1.7816,1.7841,1.7864,1.7659,1.7662,1.7665,1.781,0,1.7089,1.723,1.7221,1.7352,1.7416,1.7378,1.7448,1.7482,1.749,1.7545,1.7554,1.7618,1.7568,1.7587,1.7641,1.7652,1.7733,1.7642,1.7715,1.7718,1.7701,1.7889,1.7917,1.8052,1.7829,1.7832,1.7835,0,1.7288,1.7336,1.7474,1.7504,1.7531,1.7594,1.7646,1.77,1.7737,1.7738,1.7775,1.7755,1.7834,1.7766,1.7872,1.781,1.784,1.785,1.7855,1.7858,1.7781,1.7893,1.8096,1.8114,1.7865,1.7862,1.786,0,1.7419,1.7519,1.7613,1.7635,1.7675,1.7719,1.7738,1.777,1.7806,1.7852,1.7873,1.7929,1.7958,1.8,1.7994,1.7946,1.81,1.8033,1.8101,1.8101,1.8132,1.813,1.8338,1.8159,1.8159,1.8158,1.8158,0,1.759,1.7674,1.7671,1.7729,1.7821,1.7809,1.7901,1.7914,1.7943,1.8,1.7972,1.8026,1.8017,1.8071,1.8067,1.8152,1.8167,1.8168,1.8166,1.8169,1.8168,1.8185,1.8174,1.8164,1.8163,1.8162,1.8161,0,1.7751,1.7753,1.7852,1.7881,1.7889,1.7956,1.7979,1.8032,1.8037,1.811,1.8126,1.8134,1.8195,1.8194,1.8265,1.8262,1.8365,1.8354,1.8353,1.8349,1.8414,1.8406,1.8638,1.8665,1.8473,1.8475,1.8476,0,1.7858,1.7921,1.7956,1.7992,1.8012,1.8072,1.8107,1.8097,1.8135,1.8179,1.8225,1.8284,1.833,1.8429,1.844,1.8492,1.8479,1.8557,1.8487,1.8486,1.8474,1.8469,1.8472,1.8569,1.8571,1.8573,1.8574,0,1.8045,1.8042,1.8094,1.8145,1.8187,1.8227,1.8264,1.8295,1.8289,1.8333,1.8394,1.843,1.85,1.8556,1.8606,1.8624,1.8597,1.8597,1.8614,1.8615,1.861,1.8608,1.8385,1.8591,1.8589,1.8588,1.8587,1.8586,1.8179,1.8231,1.8262,1.832,1.8346,1.838,1.8429,1.844,1.8491,1.8546,1.8538,1.8606,1.8637,1.87,1.8722,1.8773,1.8746,1.8773,1.8778,1.8784,1.8789,1.8605,1.8783,1.8783,1.8782,1.8782,1.8782,0,1.836,1.8378,1.8431,1.8481,1.8525,1.8497,1.8536,1.8574,1.8633,1.8665,1.871,1.8778,1.8832,1.8847,1.8898,1.8936,1.8924,1.8949,1.8944,1.8947,1.8813,1.879,1.8957,1.8957,1.8957,1.8957,1.8957,1.8957,1.8459,1.8545,1.8545,1.8642,1.8658,1.8724,1.8747,1.8777,1.8801,1.8879,1.8923,1.8932,1.8956,1.9008,1.9055,1.9057,1.9075,1.9104,1.9102,1.8975,1.8957,1.894,1.8919,1.911,1.911,1.9231,1.9232,1.9233]}]]